This demonstration page uses our WeatherBlox Daily Observations layout. Learn more.

Hourly Observations for April 10, 2020

Temp ( °F °C ) Dew Point ( °F °C ) Humidity (%) Winds ( mph kmh ) Pressure ( in mb ) Visibility ( mi km ) Precip ( " mm )
12:15 am 00:15 Clear 31 -0.7 15 -9.2 53 53 ESE 6 9 30.31 1026 10 16.0934 0 0
12:35 am 00:35 Clear 30 -1.2 15 -9.2 55 55 SE 5 7 30.32 1027 10 16.0934 0 0
12:55 am 00:55 Clear 28 -2 15 -9.2 58 58 SE 3 6 30.32 1027 10 16.0934 0 0
1:15 am 01:15 Clear 28 -2 15 -9.6 56 56 SE 5 7 30.32 1027 10 16.0934 0 0
1:35 am 01:35 Clear 27 -2.6 15 -9.6 59 59 SE 5 7 30.32 1027 10 16.0934 0 0
1:55 am 01:55 Clear 29 -1.6 14 -10 53 53 S 3 6 30.31 1026 10 16.0934 0 0
2:15 am 02:15 Clear 29 -1.8 14 -10 54 54 SSE 3 6 30.31 1027 10 16.0934 0 0
2:35 am 02:35 Clear 27 -2.9 13 -10.4 57 57 ESE 3 6 30.31 1027 10 16.0934 0 0
2:55 am 02:55 Clear 28 -2.3 14 -10.1 56 56 SSE 3 6 30.31 1026 10 16.0934 0 0
3:15 am 03:15 Clear 27 -2.6 13 -10.3 56 56 S 5 7 30.31 1026 10 16.0934 0 0
3:35 am 03:35 Clear 28 -2.5 14 -10.1 56 56 S 3 6 30.31 1026 10 16.0934 0 0
3:55 am 03:55 Clear 28 -2.3 14 -10.2 55 55 Calm 30.3 1026 10 16.0934 0 0
4:15 am 04:15 Clear 28 -2 13 -10.4 53 53 S 3 6 30.29 1026 10 16.0934 0 0
4:35 am 04:35 Clear 27 -2.6 13 -10.3 56 56 Calm 30.29 1026 10 16.0934 0 0
4:55 am 04:55 Clear 23 -5 13 -10.4 66 66 SE 3 6 30.3 1026 10 16.0934 0 0
5:15 am 05:15 Clear 24 -4.6 14 -9.9 67 67 S 5 7 30.29 1026 10 16.0934 0 0
5:35 am 05:35 Clear 25 -3.8 14 -9.9 63 63 SSW 6 9 30.29 1026 10 16.0934 0 0
5:55 am 05:55 Clear 26 -3.2 14 -10 60 60 S 7 11 30.29 1026 10 16.0934 0 0
6:15 am 06:15 Clear 27 -2.9 15 -9.7 60 60 S 7 11 30.28 1026 10 16.0934 0 0
6:35 am 06:35 Partly Cloudy 27 -2.8 15 -9.4 61 61 S 6 9 30.28 1025 10 16.0934 0 0
6:55 am 06:55 Mostly Cloudy 28 -2.1 17 -8.5 62 62 S 6 9 30.28 1025 10 16.0934 0 0
7:15 am 07:15 Cloudy 29 -1.5 17 -8.2 61 61 S 8 13 30.27 1025 10 16.0934 0 0
7:35 am 07:35 Cloudy 30 -1 18 -7.6 61 61 S 9 15 30.27 1025 10 16.0934 0 0
7:55 am 07:55 Cloudy 31 -0.7 18 -7.9 59 59 S 10 17 30.26 1025 10 16.0934 0 0
8:15 am 08:15 Cloudy 31 -0.4 19 -7.5 59 59 S 9 15 30.25 1024 10 16.0934 0 0
8:35 am 08:35 Cloudy 32 0 18 -7.6 57 57 S 14 22 30.25 1024 10 16.0934 0 0
8:55 am 08:55 Cloudy 32 0.2 19 -7.5 57 57 S 16 26 30.24 1024 10 16.0934 0 0
9:15 am 09:15 Cloudy 34 1.3 17 -8.1 50 50 S 18 30 30.21 1023 10 16.0934 0 0
9:35 am 09:35 Partly Cloudy 35 1.8 17 -8.6 46 46 S 20 31 30.21 1023 10 16.0934 0 0
9:55 am 09:55 Sunny 37 3 17 -8.6 43 43 S 16 26 30.19 1022 10 16.0934 0 0
10:15 am 10:15 Partly Cloudy 38 3.5 17 -8.3 42 42 S 16 26 30.17 1022 10 16.0934 0 0
10:35 am 10:35 Cloudy 40 4.7 16 -9 37 37 SSW 22 35 30.14 1021 10 16.0934 0 0
10:55 am 10:55 Partly Cloudy 41 5 15 -9.4 35 35 S 18 30 30.13 1020 10 16.0934 0 0
11:15 am 11:15 Sunny 42 5.8 18 -8 37 37 S 16 26 30.11 1020 10 16.0934 0 0
11:35 am 11:35 Sunny 45 7 17 -8.1 34 34 S 18 30 30.08 1019 10 16.0934 0 0
11:55 am 11:55 Sunny 47 8.3 18 -7.9 31 31 S 21 33 30.05 1018 10 16.0934 0 0
12:15 pm 12:15 Sunny 48 9.1 18 -8 29 29 S 22 35 30.02 1017 10 16.0934 0 0
12:35 pm 12:35 Sunny 51 10.5 19 -7.3 28 28 S 21 33 29.99 1016 10 16.0934 0 0
12:55 pm 12:55 Sunny 51 10.5 19 -7.3 28 28 S 23 37 29.97 1015 10 16.0934 0 0
1:15 pm 13:15 Sunny 52 10.9 20 -6.6 29 29 S 23 37 29.95 1014 10 16.0934 0 0
1:35 pm 13:35 Sunny 53 11.7 21 -6 29 29 S 24 39 29.94 1014 10 16.0934 0 0
1:55 pm 13:55 Sunny 54 12 22 -5.8 29 29 SSW 23 37 29.92 1013 10 16.0934 0 0
2:15 pm 14:15 Sunny 56 13.1 23 -5.2 28 28 SSW 22 35 29.89 1012 10 16.0934 0 0
2:35 pm 14:35 Sunny 59 15 25 -3.9 27 27 SSW 22 35 29.86 1011 10 16.0934 0 0
2:55 pm 14:55 Sunny 61 16 26 -3.3 27 27 SSW 28 44 29.82 1010 10 16.0934 0 0
3:15 pm 15:15 Sunny 63 17 28 -2.4 27 27 SSW 22 35 29.8 1009 10 16.0934 0 0
3:35 pm 15:35 Sunny 63 17.1 28 -2.5 26 26 S 23 37 29.78 1009 10 16.0934 0 0
3:55 pm 15:55 Sunny 64 17.7 28 -2.2 26 26 SSW 23 37 29.76 1008 10 16.0934 0 0
4:15 pm 16:15 Sunny 64 18 28 -2 26 26 S 23 37 29.73 1007 10 16.0934 0 0
4:35 pm 16:35 Sunny 65 18.6 29 -1.8 25 25 S 26 43 29.72 1006 10 16.0934 0 0
4:55 pm 16:55 Sunny 67 19.3 30 -1.3 25 25 S 21 33 29.69 1006 10 16.0934 0 0
5:15 pm 17:15 Sunny 68 20.2 31 -0.4 25 25 S 20 31 29.68 1005 10 16.0934 0 0
5:35 pm 17:35 Partly Cloudy 70 20.9 32 0 25 25 SSW 23 37 29.65 1004 10 16.0934 0 0
5:55 pm 17:55 Sunny 70 21 32 0.2 25 25 SSW 21 33 29.65 1004 10 16.0934 0 0
6:15 pm 18:15 Sunny 70 21.1 33 0.5 25 25 S 17 28 29.63 1003 10 16.0934 0 0
6:35 pm 18:35 Sunny 70 21 33 0.7 26 26 S 16 26 29.63 1003 10 16.0934 0 0
6:55 pm 18:55 Sunny 69 20.8 34 1 27 27 S 17 28 29.62 1003 10 16.0934 0 0
7:15 pm 19:15 Sunny 69 20.5 34 1.2 28 28 S 17 28 29.62 1003 10 16.0934 0 0
7:35 pm 19:35 Sunny 67 19.7 34 1.2 29 29 S 12 19 29.63 1003 10 16.0934 0 0
7:55 pm 19:55 Sunny 64 17.9 34 1.2 33 33 SSE 9 15 29.64 1004 10 16.0934 0 0
8:15 pm 20:15 Clear 61 16.3 34 1 36 36 SSE 6 9 29.65 1004 10 16.0934 0 0
8:35 pm 20:35 Clear 58 14.7 34 1.1 40 40 SSE 6 9 29.66 1004 10 16.0934 0 0
8:55 pm 20:55 Clear 56 13.1 35 1.4 45 45 SSE 6 9 29.68 1005 10 16.0934 0 0
9:15 pm 21:15 Clear 52 11 34 1.3 52 52 SE 8 13 29.69 1006 10 16.0934 0 0
9:35 pm 21:35 Clear 53 11.6 35 1.5 50 50 SE 9 15 29.7 1006 10 16.0934 0 0
9:55 pm 21:55 Clear 53 11.5 35 1.8 52 52 SE 10 17 29.7 1006 10 16.0934 0 0
10:15 pm 22:15 Clear 52 11.3 35 1.9 53 53 SE 9 15 29.69 1005 10 16.0934 0 0
10:35 pm 22:35 Clear 52 10.9 35 1.8 54 54 SSE 8 13 29.7 1006 10 16.0934 0 0
10:55 pm 22:55 Clear 51 10.4 35 1.8 56 56 SSE 7 11 29.72 1006 10 16.0934 0 0
11:15 pm 23:15 Clear 51 10.5 35 1.5 54 54 SSE 7 11 29.72 1006 10 16.0934 0 0
11:35 pm 23:35 Clear 51 10.5 35 1.4 54 54 SSE 10 17 29.71 1006 10 16.0934 0 0
11:55 pm 23:55 Clear 52 11.1 34 1.3 51 51 S 13 20 29.69 1006 10 16.0934 0 0

Powered by AerisWeather